This is the latest recevied weather packets stored in our database for station/object KG0HG. If no packets are shown the sender has not sent any weather packets the latest 10 day(s).
| Time | Temp. | Humidity | Pressure | Rain* | Wind** | Luminosity | Snow |
|---|---|---|---|---|---|---|---|
| 1777851269 | 27.22° C | 36% | 1008.1 hPa | 0 mm | - | 49 W/m² | - |
| 1777850965 | 27.22° C | 35% | 1008.1 hPa | 0 mm | - | 58 W/m² | - |
| 1777850662 | 27.22° C | 33% | 1008.2 hPa | 0 mm | - | 41 W/m² | - |
| 1777850360 | 27.78° C | 33% | 1008 hPa | 0 mm | - | 41 W/m² | - |
| 1777850057 | 27.78° C | 33% | 1008.1 hPa | 0 mm | - | 45 W/m² | - |
| 1777849754 | 27.78° C | 32% | 1008 hPa | 0 mm | - | 47 W/m² | - |
| 1777849450 | 27.78° C | 33% | 1008.1 hPa | 0 mm | - | 50 W/m² | - |
| 1777849148 | 28.33° C | 31% | 1007.9 hPa | 0 mm | - | 59 W/m² | - |
| 1777848844 | 28.33° C | 31% | 1008.1 hPa | 0 mm | - | 60 W/m² | - |
| 1777848540 | 28.33° C | 32% | 1008.1 hPa | 0 mm | - | 58 W/m² | - |
| 1777848237 | 28.33° C | 34% | 1008 hPa | 0 mm | - | 58 W/m² | - |
| 1777847935 | 27.78° C | 33% | 1008.1 hPa | 0 mm | - | 55 W/m² | - |
| 1777847633 | 27.78° C | 31% | 1008.3 hPa | 0 mm | - | 54 W/m² | - |
| 1777847328 | 27.78° C | 33% | 1008.3 hPa | 0 mm | - | 58 W/m² | - |
| 1777847027 | 27.78° C | 33% | 1008.5 hPa | 0 mm | - | 66 W/m² | - |
| 1777846724 | 27.78° C | 32% | 1008.3 hPa | 0 mm | - | 78 W/m² | - |
| 1777846423 | 27.78° C | 32% | 1008.4 hPa | 0 mm | - | 40 W/m² | - |
| 1777846118 | 28.33° C | 32% | 1008.4 hPa | 0 mm | - | 56 W/m² | - |
| 1777845816 | 27.78° C | 32% | 1008.5 hPa | 0 mm | - | 68 W/m² | - |
| 1777845512 | 27.78° C | 31% | 1008.6 hPa | 0 mm | - | 261 W/m² | - |
| 1777845210 | 27.78° C | 32% | 1008.7 hPa | 0 mm | - | 56 W/m² | - |
| 1777844907 | 27.78° C | 31% | 1008.7 hPa | 0 mm | - | 57 W/m² | - |
| 1777844604 | 27.78° C | 33% | 1008.8 hPa | 0 mm | - | 61 W/m² | - |
| 1777844302 | 27.78° C | 32% | 1008.6 hPa | 0 mm | - | 135 W/m² | - |
| 1777843999 | 27.78° C | 31% | 1008.9 hPa | 0 mm | - | 325 W/m² | - |
* Rain latest hour (hover to see other rain measurements)
** Current wind speed in m/s (hover to see current wind gust speed)